| time (UTC) | temp F | wind direction | speed knots | gust knots | rain 1hr in | rain 24hr in | rain mn in | humidity % | barometer mb |
| 20260504194531 | 79 | 355 | 4.3 | 10.4 | 0.00 | 0.00 | 0.00 | 38 | 1013.6 |
| 20260504193031 | 78 | 345 | 3.5 | 7.8 | 0.00 | 0.00 | 0.00 | 39 | 1013.6 |
| 20260504183142 | 77 | 349 | 3.5 | 7.8 | 0.00 | 0.00 | 0.00 | 41 | 1013.9 |
| 20260504174610 | 75 | 328 | 2.6 | 6.1 | 0.00 | 0.00 | 0.00 | 40 | 1013.9 |
| 20260504173107 | 75 | 321 | 2.6 | 6.1 | 0.00 | 0.00 | 0.00 | 40 | 1013.9 |
| 20260504171636 | 74 | 331 | 2.6 | 6.1 | 0.00 | 0.00 | 0.00 | 43 | 1013.9 |
| 20260504120107 | 53 | 154 | 2.6 | 4.3 | 0.00 | 0.00 | 0.00 | 68 | 1013.0 |
| 20260504081530 | 56 | 149 | 3.5 | 6.1 | 0.00 | 0.00 | 0.00 | 59 | 1013.8 |
| 20260504044607 | 63 | 149 | 3.5 | 6.1 | 0.00 | 0.00 | 0.00 | 51 | 1013.5 |
| 20260504043029 | 63 | 136 | 3.5 | 7.8 | 0.00 | 0.00 | 0.00 | 51 | 1013.4 |
| 20260504041535 | 63 | 142 | 3.5 | 6.1 | 0.00 | 0.00 | 0.00 | 51 | 1013.3 |
| 20260504040046 | 63 | 157 | 2.6 | 4.3 | 0.00 | 0.00 | 0.00 | 52 | 1013.1 |
| 20260504034531 | 65 | 157 | 2.6 | 3.5 | 0.00 | 0.00 | 0.00 | 51 | 1013.0 |
| 20260504033034 | 67 | 176 | 2.6 | 5.2 | 0.00 | 0.00 | 0.00 | 49 | 1012.7 |
| 20260504031536 | 70 | 161 | 2.6 | 4.3 | 0.00 | 0.00 | 0.00 | 47 | 1012.6 |
| 20260504023034 | 81 | 297 | 0.9 | 4.3 | 0.00 | 0.00 | 0.00 | 28 | 1012.6 |
| 20260504020031 | 81 | 292 | 2.6 | 6.1 | 0.00 | 0.00 | 0.00 | 27 | 1012.8 |
| 20260504013034 | 82 | 295 | 3.5 | 6.1 | 0.00 | 0.00 | 0.00 | 25 | 1012.9 |
| 20260504011532 | 84 | 300 | 3.5 | 6.1 | 0.00 | 0.00 | 0.00 | 23 | 1013.0 |
| 20260504010030 | 86 | 227 | 1.7 | 4.3 | 0.00 | 0.00 | 0.00 | 22 | 1013.3 |
| 20260504004530 | 85 | 7 | 0.0 | 3.5 | 0.00 | 0.00 | 0.00 | 22 | 1013.4 |
| 20260504003109 | 84 | 330 | 1.7 | 6.1 | 0.00 | 0.00 | 0.00 | 23 | 1013.5 |
| 20260504001536 | 85 | 15 | 2.6 | 7.0 | 0.00 | 0.00 | 0.00 | 23 | 1013.6 |
| 20260504000142 | 84 | 38 | 1.7 | 8.7 | 0.00 | 0.00 | 0.00 | 24 | 1013.7 |
| 20260503234534 | 84 | 12 | 3.5 | 8.7 | 0.00 | 0.00 | 0.00 | 24 | 1013.7 |
| 20260503231535 | 87 | 81 | 1.7 | 7.0 | 0.00 | 0.00 | 0.00 | 24 | 1014.0 |
| 20260503230032 | 86 | 80 | 3.5 | 7.8 | 0.00 | 0.00 | 0.00 | 25 | 1014.3 |
| 20260503224532 | 86 | 105 | 2.6 | 6.1 | 0.00 | 0.00 | 0.00 | 25 | 1014.4 |
| 20260503223038 | 84 | 89 | 0.9 | 7.8 | 0.00 | 0.00 | 0.00 | 26 | 1014.8 |
| 20260503220032 | 84 | 37 | 2.6 | 8.7 | 0.00 | 0.00 | 0.00 | 26 | 1015.2 |
| 20260503214535 | 84 | 43 | 3.5 | 9.6 | 0.00 | 0.00 | 0.00 | 26 | 1015.4 |
| 20260503211607 | 82 | 53 | 3.5 | 7.8 | 0.00 | 0.00 | 0.00 | 28 | 1015.6 |
| 20260503210032 | 81 | 46 | 4.3 | 10.4 | 0.00 | 0.00 | 0.00 | 28 | 1015.8 |
| 20260503204532 | 82 | 51 | 5.2 | 14.8 | 0.00 | 0.00 | 0.00 | 27 | 1016.0 |
| 20260503203032 | 82 | 90 | 4.3 | 12.2 | 0.00 | 0.00 | 0.00 | 28 | 1016.2 |
| 20260503200149 | 80 | 50 | 4.3 | 13.9 | 0.00 | 0.00 | 0.00 | 28 | 1016.5 |